Astoria, OR

12:58 AM PDT on July 25, 2017 (GMT -0700)
Astoria Regional

Weather History for KAST - April, 2013

Change the Weather History Date:

Friday, April 12, 2013

  Actual Average Record
Temperature  
Mean Temperature 43 °F 48 °F  
Max Temperature 49 °F 56 °F 77 °F (2008)
Min Temperature 37 °F 41 °F 30 °F (1968)
Degree Days  
Heating Degree Days 22 17  
Month to date heating degree days 190 205  
Since 1 July heating degree days 4143 4125  
Cooling Degree Days 0 0  
Month to date cooling degree days 0 0  
Year to date cooling degree days 0 0  
Moisture  
Dew Point 41 °F    
Average Humidity 80    
Maximum Humidity 93    
Minimum Humidity 66    
Precipitation  
Precipitation 0.19 in 0.18 in 2.01 in (1896)
Month to date precipitation 4.55 2.34  
Year to date precipitation 23.83 27.18  
Snow  
Snow 0.00 in - - ()
Month to date snowfall 0.0  
Snow Depth 0.00 in    
Sea Level Pressure  
Sea Level Pressure 29.95 in    
Wind  
Wind Speed 6 mph (SSW)    
Max Wind Speed 24 mph    
Max Gust Speed 33 mph    
Visibility 6 miles    
Events Rain    
T = Trace of Precipitation, MM = Missing Value Source: NWS Daily Summary

Daily Weather History Graph

Daily Weather History Graph

Search for Another Location

Airport or City:

Trip Planner

Search our weather history database for the weather conditions in past years. The results will help you decide how hot, cold, wet, or windy it might be!

Date:

Astronomy

Apr. 12, 2013 Rise Set
Actual Time 6:33 AM PDT 7:59 PM PDT
Civil Twilight 6:02 AM PDT 8:30 PM PDT
Nautical Twilight 5:25 AM PDT 9:08 PM PDT
Astronomical Twilight 4:44 AM PDT 9:48 PM PDT
Moon 7:40 AM PDT (4/12) 10:44 PM PDT (4/12)
Length of Visible Light 14h 27m
Length of Day
13h 25m
Waxing Crescent, 6% of the Moon is Illuminated
Apr 12
Waxing Crescent
Apr 18
First Quarter
Apr 25
Full
May 2
Last Quarter
May 9
New

Hourly Weather History & Observations

Time (PDT) Temp. Windchill Dew Point Humidity Pressure Visibility Wind Dir Wind Speed Gust Speed Precip Events Conditions
12:55 AM 39.9 °F - 37.0 °F 89% 30.22 in 10.0 mi Calm Calm - N/A   Overcast
1:55 AM 39.9 °F 36.7 °F 36.0 °F 86% 30.19 in 10.0 mi SSE 4.6 mph - N/A   Overcast
2:55 AM 39.9 °F - 37.0 °F 89% 30.16 in 10.0 mi Calm Calm - N/A   Overcast
3:55 AM 41.0 °F 39.0 °F 37.0 °F 86% 30.14 in 10.0 mi ESE 3.5 mph - N/A   Overcast
4:55 AM 39.0 °F 36.8 °F 36.0 °F 89% 30.12 in 10.0 mi SSE 3.5 mph - N/A   Mostly Cloudy
5:03 AM 39.2 °F 37.0 °F 35.6 °F 87% 30.12 in 10.0 mi SE 3.5 mph - N/A   Partly Cloudy
5:55 AM 37.9 °F 35.5 °F 36.0 °F 93% 30.10 in 10.0 mi SSE 3.5 mph - N/A   Clear
6:55 AM 37.9 °F - 36.0 °F 93% 30.08 in 10.0 mi Calm Calm - N/A   Clear
7:55 AM 39.9 °F 36.7 °F 36.0 °F 86% 30.06 in 10.0 mi SE 4.6 mph - N/A   Clear
8:55 AM 42.1 °F 40.2 °F 37.9 °F 85% 30.05 in 10.0 mi ESE 3.5 mph - N/A   Clear
9:55 AM 45.0 °F - 37.9 °F 76% 30.02 in 10.0 mi Calm Calm - N/A   Partly Cloudy
10:55 AM 46.0 °F 44.8 °F 37.0 °F 71% 30.01 in 10.0 mi ESE 3.5 mph - N/A   Overcast
11:55 AM 48.0 °F - 37.0 °F 66% 29.99 in 10.0 mi SSW 4.6 mph - N/A   Mostly Cloudy
12:55 PM 46.9 °F - 39.9 °F 77% 29.99 in 8.0 mi SW 9.2 mph - 0.00 in Rain Light Rain
1:55 PM 46.9 °F - 43.0 °F 86% 29.97 in 8.0 mi South 6.9 mph - 0.02 in Rain Light Rain
2:32 PM 46.4 °F 42.4 °F 44.6 °F 93% 29.95 in 7.0 mi South 8.1 mph - 0.02 in Rain Light Rain
2:55 PM 46.9 °F - 44.1 °F 90% 29.94 in 7.0 mi South 11.5 mph 17.3 mph 0.03 in Rain Light Rain
3:37 PM 46.4 °F 42.4 °F 42.8 °F 87% 29.91 in 5.0 mi South 8.1 mph - 0.03 in Rain Light Rain
3:44 PM 46.4 °F 41.5 °F 42.8 °F 87% 29.91 in 8.0 mi South 10.4 mph - 0.03 in Rain Light Rain
3:55 PM 46.0 °F 41.0 °F 43.0 °F 89% 29.90 in 8.0 mi South 10.4 mph - 0.03 in Rain Light Rain
4:27 PM 46.4 °F 42.4 °F 42.8 °F 87% 29.88 in 5.0 mi South 8.1 mph - 0.01 in Rain Light Rain
4:35 PM 46.4 °F 41.9 °F 44.6 °F 93% 29.88 in 3.0 mi SSW 9.2 mph - 0.02 in Rain Light Rain
4:55 PM 46.0 °F 41.4 °F 44.1 °F 93% 29.88 in 2.5 mi SSW 9.2 mph - 0.02 in Rain Light Rain
5:12 PM 46.4 °F 41.1 °F 44.6 °F 93% 29.87 in 1.8 mi SSW 11.5 mph 23.0 mph 0.02 in Rain Light Rain
5:15 PM 46.4 °F 40.7 °F 44.6 °F 93% 29.87 in 2.0 mi SSW 12.7 mph 20.7 mph 0.02 in Rain Light Rain
5:28 PM 46.4 °F 39.2 °F 44.6 °F 93% 29.86 in 3.0 mi SSW 18.4 mph 25.3 mph 0.03 in Rain Light Rain
5:36 PM 46.4 °F 39.8 °F 44.6 °F 93% 29.86 in 2.5 mi South 16.1 mph 25.3 mph 0.03 in Rain Light Rain
5:55 PM 46.9 °F - 44.1 °F 90% 29.84 in 2.5 mi SSW 15.0 mph 26.5 mph 0.04 in Rain Light Rain
6:20 PM 46.4 °F 39.5 °F 44.6 °F 93% 29.84 in 2.0 mi SSW 17.3 mph 29.9 mph 0.02 in Rain Light Rain
6:25 PM 46.4 °F 39.5 °F 44.6 °F 93% 29.84 in 1.8 mi SSW 17.3 mph 31.1 mph 0.02 in Rain Light Rain
6:33 PM 46.4 °F 39.8 °F 44.6 °F 93% 29.84 in 1.5 mi SSW 16.1 mph 27.6 mph 0.03 in Rain Light Rain
6:55 PM 46.9 °F - 45.0 °F 93% 29.83 in 1.8 mi SSW 18.4 mph 32.2 mph 0.04 in Rain Light Rain
7:19 PM 46.4 °F 40.1 °F 44.6 °F 93% 29.83 in 1.2 mi SW 15.0 mph 28.8 mph 0.02 in Rain Light Rain
7:28 PM 46.4 °F 39.2 °F 44.6 °F 93% 29.83 in 1.8 mi SW 18.4 mph 31.1 mph 0.03 in Rain Light Rain
7:47 PM 46.4 °F 38.7 °F 44.6 °F 93% 29.84 in 2.0 mi WNW 20.7 mph 33.4 mph 0.09 in Rain Rain
7:55 PM 46.0 °F 39.0 °F 44.1 °F 93% 29.84 in 2.5 mi West 17.3 mph 27.6 mph 0.10 in Rain Light Rain
7:59 PM 46.4 °F 38.3 °F 44.6 °F 93% 29.85 in 2.5 mi West 23.0 mph 29.9 mph 0.00 in Rain Light Rain
8:06 PM 46.4 °F 39.5 °F 42.8 °F 87% 29.85 in 6.0 mi WNW 17.3 mph 29.9 mph 0.00 in Rain Light Rain
8:55 PM 45.0 °F 37.9 °F 37.9 °F 76% 29.88 in 10.0 mi West 16.1 mph 23.0 mph 0.00 in   Overcast
9:05 PM 44.6 °F 37.2 °F 37.4 °F 76% 29.89 in 10.0 mi West 17.3 mph 24.2 mph N/A   Overcast
9:55 PM 45.0 °F 38.5 °F 36.0 °F 71% 29.91 in 10.0 mi West 13.8 mph 24.2 mph N/A   Overcast
10:55 PM 45.0 °F 38.9 °F 37.0 °F 74% 29.92 in 8.0 mi WNW 12.7 mph 20.7 mph 0.01 in Rain Light Rain
11:55 PM 44.1 °F 36.5 °F 36.0 °F 73% 29.94 in 10.0 mi West 17.3 mph 26.5 mph 0.00 in Rain Light Rain